FW7458 Weather Reports


time (UTC)temp
C
wind
direction
speed
KPH
gust
KPH
rain 1hr
cm
rain 24hr
cm
rain mn
cm
humidity
%
barometer
mb
20260502170506 14 332 4.8 14.5 0.00 0.00 0.00 44 1020.9
20260502164011 14 113 3.2 14.5 0.00 0.00 0.00 46 1020.9
20260502163511 14 350 9.7 14.5 0.00 0.00 0.00 46 1020.9
20260502163033 14 317 4.8 14.5 0.00 0.00 0.00 45 1021.0
20260502162508 14 360 6.4 14.5 0.00 0.00 0.00 43 1021.0
20260502162007 14 26 4.8 16.1 0.00 0.00 0.00 44 1021.0
20260502161522 14 9 9.7 16.1 0.00 0.00 0.00 47 1021.1
20260502161003 13 9 4.8 16.1 0.00 0.00 0.00 45 1021.0
20260502160507 13 9 3.2 14.5 0.00 0.00 0.00 48 1020.9
20260502152020 12 311 4.8 14.5 0.00 0.00 0.00 55 1021.0
20260502151536 12 344 9.7 14.5 0.00 0.00 0.00 56 1021.0
20260502151010 12 4.8 12.9 0.00 0.00 0.00 1020.9
20260502150513 12 338 6.4 12.9 0.00 0.00 0.00 59 1021.0
20260502130508 8 352 6.4 11.3 0.00 0.00 0.00 66 1019.9
20260502123507 7 289 4.8 9.7 0.00 0.00 0.00 69 1019.7
20260502123027 7 324 1.6 6.4 0.00 0.00 0.00 70 1019.7
20260502122506 7 313 1.6 6.4 0.00 0.00 0.00 69 1019.6
20260502122006 7 309 4.8 6.4 0.00 0.00 0.00 69 1019.6
20260502121515 7 292 3.2 8.0 0.00 0.00 0.00 69 1019.5
20260502121004 7 321 4.8 8.0 0.00 0.00 0.00 69 1019.5
20260502120507 7 286 3.2 8.0 0.00 0.00 0.00 71 1019.4
20260502115512 7 302 1.6 4.8 0.00 0.00 0.00 72 1019.3
20260502115009 6 307 1.6 3.2 0.00 0.00 0.00 72 1019.2
20260502114524 6 307 1.6 3.2 0.00 0.00 0.00 72 1019.1
20260502114016 6 298 0.0 3.2 0.00 0.00 0.00 72 1019.0
20260502113508 6 298 0.0 3.2 0.00 0.00 0.00 72 1019.0
20260502113029 6 298 0.0 3.2 0.00 0.00 0.00 72 1018.9
20260502112506 7 324 1.6 3.2 0.00 0.00 0.00 72 1018.9
20260502112009 7 323 0.0 3.2 0.00 0.00 0.00 71 1018.9
20260502111527 7 331 0.0 3.2 0.00 0.00 0.00 71 1018.9
20260502111003 7 310 0.0 3.2 0.00 0.00 0.00 70 1018.7
20260502110506 7 316 0.0 3.2 0.00 0.00 0.00 70 1018.7
20260502110027 7 317 0.0 3.2 0.00 0.00 0.00 70 1018.7
20260502105508 7 317 1.6 3.2 0.00 0.00 0.00 69 1018.7
20260502105007 7 333 0.0 4.8 0.00 0.00 0.00 69 1018.7
20260502104527 7 330 0.0 4.8 0.00 0.00 0.00 69 1018.8
20260502104009 7 284 1.6 3.2 0.00 0.00 0.00 70 1018.8
20260502103504 7 296 1.6 3.2 0.00 0.00 0.00 69 1018.7
20260502103007 7 343 0.0 4.8 0.00 0.00 0.00 70 1018.5
20260502102505 7 360 3.2 4.8 0.00 0.00 0.00 70 1018.5
20260502102003 7 336 0.0 4.8 0.00 0.00 0.00 70 1018.6
20260502101512 7 336 0.0 3.2 0.00 0.00 0.00 70 1018.6
20260502101003 7 341 1.6 3.2 0.00 0.00 0.00 69 1018.6
20260502100501 7 360 0.0 3.2 0.00 0.00 0.00 69 1018.5
20260502091511 8 339 1.6 4.8 0.00 0.00 0.00 67 1018.0
20260502091005 8 340 0.0 3.2 0.00 0.00 0.00 67 1017.9
20260502090503 8 352 0.0 3.2 0.00 0.00 0.00 67 1017.9
20260502071533 8 329 0.0 3.2 0.00 0.00 0.00 74 1017.7
20260502071006 8 329 0.0 3.2 0.00 0.00 0.00 74 1017.7
20260502070513 -17 328 0.0 0.0 0.00 0.00 0.00 1017.7
20260502070052 -17 0.0 0.0 0.00 0.00 0.00 1017.7
20260502065511 -17 0.0 0.0 0.00 0.00 0.00 1017.8
20260502065019 -17 0.0 0.0 0.00 0.00 0.00 1017.9
20260502064533 9 0.0 0.0 0.00 0.00 0.00 72 1017.8
20260502064010 9 329 0.0 3.2 0.00 0.00 0.00 72 1017.8
20260502063515 9 327 0.0 1.6 0.00 0.00 0.00 72 1017.8
20260502063021 -17 328 0.0 0.0 0.00 0.00 0.00 71 1017.9
20260502062511 -17 0.0 0.0 0.00 0.00 0.00 1017.9
20260502062013 10 0.0 0.0 0.00 0.00 0.00 70 1017.9
20260502061533 10 302 1.6 3.2 0.00 0.00 0.00 70 1017.8
20260502061003 10 316 0.0 3.2 0.00 0.00 0.00 68 1017.9
20260502060512 10 316 0.0 0.0 0.00 0.00 0.00 68 1017.9
20260502060038 10 316 0.0 0.0 0.00 0.00 0.00 67 1017.9
20260502055511 10 316 0.0 0.0 0.00 0.00 0.00 66 1017.9
20260502055015 10 316 0.0 1.6 0.00 0.00 0.00 66 1017.8
20260502054541 10 316 0.0 3.2 0.00 0.00 0.00 65 1017.8
20260502054010 11 327 0.0 3.2 0.00 0.00 0.00 65 1017.8
20260502053510 11 327 0.0 3.2 0.00 0.00 0.00 64 1017.8
20260502053016 11 327 0.0 3.2 0.00 0.00 0.00 64 1017.7
20260502052514 11 325 0.0 3.2 0.00 0.00 0.00 63 1017.7
20260502052011 11 311 0.0 3.2 0.00 0.00 0.00 62 1017.7
20260502051529 11 327 0.0 3.2 0.00 0.00 0.00 62 1017.7
20260502051013 11 295 0.0 1.6 0.00 0.00 0.00 60 1017.7
20260502050510 11 295 0.0 0.0 0.00 0.00 0.00 60 1017.6
20260502050024 11 295 0.0 0.0 0.00 0.00 0.00 60 1017.6
20260502045501 11 295 0.0 0.0 0.00 0.00 0.00 60 1017.5
20260502045005 11 295 0.0 0.0 0.00 0.00 0.00 60 1017.5
20260502044507 11 295 0.0 1.6 0.00 0.00 0.00 59 1017.6
20260502044011 12 295 0.0 3.2 0.00 0.00 0.00 59 1017.5
20260502043505 12 295 0.0 0.0 0.00 0.00 0.00 58 1017.5
20260502043033 12 295 0.0 3.2 0.00 0.00 0.00 59 1017.5
20260502042512 12 295 0.0 1.6 0.00 0.00 0.00 59 1017.6
20260502042017 12 295 0.0 3.2 0.00 0.00 0.00 59 1017.6
20260502041551 12 295 0.0 3.2 0.00 0.00 0.00 58 1017.5
20260502041010 12 295 0.0 3.2 0.00 0.00 0.00 58 1017.6
20260502040509 12 287 0.0 3.2 0.00 0.00 0.00 58 1017.6
20260502040048 12 275 0.0 0.0 0.00 0.00 0.00 57 1017.6
20260502035510 12 275 0.0 3.2 0.00 0.00 0.00 57 1017.6
20260502035013 12 275 0.0 3.2 0.00 0.00 0.00 57 1017.6
20260502034530 12 275 0.0 0.0 0.00 0.00 0.00 56 1017.6
20260502034014 12 275 0.0 0.0 0.00 0.00 0.00 54 1017.7
20260502033514 13 275 0.0 0.0 0.00 0.00 0.00 54 1017.6
20260502033031 13 275 0.0 0.0 0.00 0.00 0.00 54 1017.6
20260502032507 13 275 0.0 0.0 0.00 0.00 0.00 55 1017.5
20260502032002 13 275 0.0 0.0 0.00 0.00 0.00 53 1017.5
20260502031503 13 275 0.0 0.0 0.00 0.00 0.00 54 1017.5
20260502031002 13 275 0.0 0.0 0.00 0.00 0.00 53 1017.6
20260502030502 13 275 0.0 0.0 0.00 0.00 0.00 53 1017.6
20260502030003 13 275 0.0 3.2 0.00 0.00 0.00 53 1017.5
20260502025503 13 275 0.0 0.0 0.00 0.00 0.00 52 1017.6
20260502025007 13 275 0.0 0.0 0.00 0.00 0.00 51 1017.4
20260502024506 13 275 0.0 3.2 0.00 0.00 0.00 51 1017.5
20260502024003 13 275 0.0 3.2 0.00 0.00 0.00 50 1017.4
20260502023504 14 275 0.0 3.2 0.00 0.00 0.00 49 1017.3
20260502023020 14 275 0.0 3.2 0.00 0.00 0.00 48 1017.2
20260502022503 14 275 0.0 1.6 0.00 0.00 0.00 49 1017.1
20260502022005 14 275 0.0 0.0 0.00 0.00 0.00 48 1017.0
20260502021505 15 275 0.0 0.0 0.00 0.00 0.00 1017.0
20260502021005 15 275 0.0 0.0 0.00 0.00 0.00 1016.8
20260502020502 15 275 0.0 0.0 0.00 0.00 0.00 45 1016.7
20260502020010 15 275 0.0 0.0 0.00 0.00 0.00 45 1016.8
20260502015503 15 275 0.0 0.0 0.00 0.00 0.00 46 1016.9
20260502015004 15 275 0.0 0.0 0.00 0.00 0.00 46 1016.9
20260502014506 15 275 0.0 0.0 0.00 0.00 0.00 43 1016.8
20260502014002 15 275 0.0 0.0 0.00 0.00 0.00 43 1016.7
20260502013502 15 275 0.0 0.0 0.00 0.00 0.00 42 1016.6
20260502013008 16 275 0.0 3.2 0.00 0.00 0.00 41 1016.6
20260502012503 16 275 0.0 3.2 0.00 0.00 0.00 41 1016.5
20260502012004 16 275 0.0 3.2 0.00 0.00 0.00 39 1016.4
20260502011508 16 275 1.6 3.2 0.00 0.00 0.00 39 1016.3
20260502011003 16 283 1.6 3.2 0.00 0.00 0.00 39 1016.3
20260502010503 16 292 0.0 3.2 0.00 0.00 0.00 39 1016.2
20260502010014 16 295 0.0 4.8 0.00 0.00 0.00 39 1016.1
20260502005503 16 299 0.0 4.8 0.00 0.00 0.00 39 1016.0
20260502005002 17 288 1.6 3.2 0.00 0.00 0.00 38 1015.9
20260502004503 17 288 0.0 3.2 0.00 0.00 0.00 38 1015.9
20260502004005 16 288 0.0 3.2 0.00 0.00 0.00 38 1015.9
20260502003503 17 314 1.6 3.2 0.00 0.00 0.00 38 1015.8
20260502003010 17 319 1.6 4.8 0.00 0.00 0.00 38 1015.7
20260502002503 17 338 0.0 4.8 0.00 0.00 0.00 37 1015.7
20260502001005 -17 0.0 0.0 0.00 0.00 0.00 1015.6
20260501232534 17 340 0.0 6.4 0.00 0.00 0.00 34 1015.7
20260501230503 18 318 1.6 8.0 0.00 0.00 0.00 29 1015.5
20260501230031 18 262 4.8 14.5 0.00 0.00 0.00 29 1015.5
20260501225506 18 306 4.8 14.5 0.00 0.00 0.00 30 1015.5
20260501225005 18 300 3.2 9.7 0.00 0.00 0.00 30 1015.4
20260501224519 18 20 4.8 17.7 0.00 0.00 0.00 30 1015.4
20260501224004 18 305 4.8 17.7 0.00 0.00 0.00 30 1015.4
20260501223503 18 338 3.2 11.3 0.00 0.00 0.00 31 1015.4
20260501223019 18 279 3.2 17.7 0.00 0.00 0.00 32 1015.5
20260501222506 18 307 3.2 17.7 0.00 0.00 0.00 30 1015.5
20260501222007 18 323 12.9 17.7 0.00 0.00 0.00 29 1015.6
20260501221505 18 288 8.0 17.7 0.00 0.00 0.00 30 1015.6
20260501221004 18 286 6.4 16.1 0.00 0.00 0.00 30 1015.6
20260501220503 18 342 9.7 16.1 0.00 0.00 0.00 29 1015.6
20260501220010 18 281 8.0 17.7 0.00 0.00 0.00 30 1015.6
20260501215504 18 35 9.7 19.3 0.00 0.00 0.00 29 1015.5
20260501215004 18 291 11.3 19.3 0.00 0.00 0.00 29 1015.6
20260501214519 18 21 6.4 16.1 0.00 0.00 0.00 29 1015.6
20260501214003 18 344 6.4 16.1 0.00 0.00 0.00 29 1015.7
20260501213504 18 352 4.8 17.7 0.00 0.00 0.00 29 1015.8
20260501213022 18 12 4.8 17.7 0.00 0.00 0.00 28 1015.9
20260501212506 18 326 9.7 17.7 0.00 0.00 0.00 29 1016.1
20260501212004 18 307 9.7 17.7 0.00 0.00 0.00 28 1016.3
20260501211518 18 298 8.0 27.4 0.00 0.00 0.00 28 1016.4
20260501211009 18 327 11.3 22.5 0.00 0.00 0.00 30 1016.5
20260501210506 18 290 1.6 14.5 0.00 0.00 0.00 29 1016.6
20260501210007 17 298 1.6 14.5 0.00 0.00 0.00 30 1016.8
20260501205503 18 360 6.4 12.9 0.00 0.00 0.00 29 1016.9
20260501205007 18 297 4.8 20.9 0.00 0.00 0.00 30 1017.0
20260501204521 18 285 9.7 20.9 0.00 0.00 0.00 30 1017.1
20260501204008 18 18 4.8 16.1 0.00 0.00 0.00 29 1017.2
20260501203503 17 18 4.8 9.7 0.00 0.00 0.00 30 1017.2
20260501203023 17 242 4.8 11.3 0.00 0.00 0.00 29 1017.3
20260501202506 17 9 4.8 16.1 0.00 0.00 0.00 29 1017.4
20260501202009 17 217 6.4 16.1 0.00 0.00 0.00 29 1017.5
20260501201523 17 271 1.6 12.9 0.00 0.00 0.00 29 1017.6
20260501201007 17 169 4.8 17.7 0.00 0.00 0.00 28 1017.6
20260501200513 17 333 6.4 17.7 0.00 0.00 0.00 28 1017.7
20260501200027 17 50 3.2 11.3 0.00 0.00 0.00 29 1017.7
20260501195509 17 310 4.8 14.5 0.00 0.00 0.00 29 1017.9
20260501195010 17 347 3.2 12.9 0.00 0.00 0.00 28 1018.0
20260501194512 17 306 3.2 14.5 0.00 0.00 0.00 27 1018.1
20260501194010 17 327 6.4 16.1 0.00 0.00 0.00 29 1018.0
20260501193503 17 261 8.0 16.1 0.00 0.00 0.00 28 1018.0
20260501193014 17 249 8.0 16.1 0.00 0.00 0.00 27 1018.2
20260501192504 18 350 4.8 14.5 0.00 0.00 0.00 29 1018.3
20260501192010 17 12 6.4 14.5 0.00 0.00 0.00 28 1018.2
20260501191503 18 108 8.0 14.5 0.00 0.00 0.00 28 1018.3
20260501191003 17 261 3.2 8.0 0.00 0.00 0.00 28 1018.3
20260501190510 17 277 3.2 11.3 0.00 0.00 0.00 28 1018.3
20260501190001 17 282 6.4 12.9 0.00 0.00 0.00 27 1018.3
20260501185509 17 309 3.2 19.3 0.00 0.00 0.00 28 1018.3
20260501185004 17 269 6.4 16.1 0.00 0.00 0.00 29 1018.3
20260501184527 17 300 9.7 20.9 0.00 0.00 0.00 29 1018.3
20260501184007 17 349 8.0 20.9 0.00 0.00 0.00 27 1018.3
20260501183512 17 302 11.3 17.7 0.00 0.00 0.00 27 1018.4
20260501183024 17 314 3.2 8.0 0.00 0.00 0.00 29 1018.4
20260501182507 17 119 4.8 8.0 0.00 0.00 0.00 29 1018.3
20260501182004 17 150 0.0 8.0 0.00 0.00 0.00 30 1018.4
20260501181504 17 104 1.6 9.7 0.00 0.00 0.00 30 1018.3
20260501181005 17 36 6.4 11.3 0.00 0.00 0.00 30 1018.2
20260501180502 17 80 3.2 11.3 0.00 0.00 0.00 29 1018.4
20260501180024 17 36 1.6 8.0 0.00 0.00 0.00 30 1018.4
20260501175509 17 134 1.6 8.0 0.00 0.00 0.00 29 1018.4
20260501175004 16 148 1.6 6.4 0.00 0.00 0.00 29 1018.4
20260501174529 16 40 1.6 12.9 0.00 0.00 0.00 29 1018.5
20260501174011 16 213 4.8 12.9 0.00 0.00 0.00 30 1018.6
20260501173504 16 113 1.6 17.7 0.00 0.00 0.00 31 1018.5
20260501173021 16 126 8.0 17.7 0.00 0.00 0.00 30 1018.5
20260501172504 16 88 3.2 9.7 0.00 0.00 0.00 30 1018.5